This is the latest recevied weather packets stored in our database for station/object KC9GSD. If no packets are shown the sender has not sent any weather packets the latest 10 day(s).
| Time | Temp. | Humidity | Pressure | Rain* | Wind** | Luminosity | Snow |
|---|---|---|---|---|---|---|---|
| 1778185441 | 18.89° C | 69% | 1013.4 hPa | 0 mm | - | 207 W/m² | - |
| 1778185136 | 19.44° C | 67% | 1013.5 hPa | 0 mm | - | 178 W/m² | - |
| 1778184832 | 18.89° C | 69% | 1013.5 hPa | 0 mm | - | 138 W/m² | - |
| 1778184529 | 18.89° C | 73% | 1013.4 hPa | 0 mm | - | 148 W/m² | - |
| 1778184224 | 18.89° C | 69% | 1013.5 hPa | 0 mm | - | 244 W/m² | - |
| 1778183921 | 18.89° C | 74% | 1013.2 hPa | 0 mm | - | 713 W/m² | - |
| 1778183618 | 18.89° C | 71% | 1013.4 hPa | 0 mm | - | 159 W/m² | - |
| 1778183316 | 18.89° C | 69% | 1013.3 hPa | 0 mm | - | 492 W/m² | - |
| 1778183012 | 19.44° C | 68% | 1013.3 hPa | 0 mm | - | 292 W/m² | - |
| 1778182708 | 18.89° C | 71% | 1013.4 hPa | 0 mm | - | 795 W/m² | - |
| 1778182406 | 18.33° C | 70% | 1013.7 hPa | 0 mm | - | 257 W/m² | - |
| 1778182101 | 18.89° C | 68% | 1013.3 hPa | 0 mm | - | 243 W/m² | - |
| 1778181798 | 19.44° C | 70% | 1013.5 hPa | 0 mm | - | 861 W/m² | - |
| 1778181495 | 19.44° C | 70% | 1013.7 hPa | 0 mm | - | 652 W/m² | - |
| 1778181191 | 18.33° C | 73% | 1013.3 hPa | 0 mm | - | 935 W/m² | - |
| 1778180888 | 18.33° C | 73% | 1013.4 hPa | 0 mm | - | 376 W/m² | - |
| 1778180587 | 18.33° C | 71% | 1013.3 hPa | 0 mm | - | 254 W/m² | - |
| 1778180285 | 18.33° C | 77% | 1013.3 hPa | 0 mm | - | 599 W/m² | - |
| 1778179981 | 19.44° C | 75% | 1013.8 hPa | 0 mm | - | 279 W/m² | - |
| 1778179679 | 18.89° C | 77% | 1013.9 hPa | 0 mm | - | 942 W/m² | - |
| 1778179377 | 18.33° C | 72% | 1014.1 hPa | 0 mm | - | 998 W/m² | - |
| 1778179073 | 17.78° C | 78% | 1013.9 hPa | 0 mm | - | 760 W/m² | - |
| 1778178770 | 17.78° C | 81% | 1013.9 hPa | 0 mm | - | 393 W/m² | - |
| 1778178468 | 17.22° C | 81% | 1013.9 hPa | 0 mm | - | 377 W/m² | - |
| 1778178168 | 17.22° C | 82% | 1014.1 hPa | 0 mm | - | 512 W/m² | - |
* Rain latest hour (hover to see other rain measurements)
** Current wind speed in m/s (hover to see current wind gust speed)